Погода в Русаково

Россия / Тюменская область     56°58′51″N   68°54′05″E
темп.,
°C
ветер,
м/с
пор.,
м/с
влажн.,
%
обл.,
%
осадки,
мм/ч
давл.,
гПа
погр.,
м
17 июня, чт
чт1723:00+17сз11805 0.0 101111
02:00+16юз33825 0.1 101130
05:00+17ю378885 0.3 1009128
08:00+22юз597433 0.4 1008386
11:00+27зюз574976 0.4 10071048
14:00+28юз4745100 0.0 10051126
17:00+19ю7127896 0.8 1003231
20:00+20зюз397398 0.1 1002217
18 июня, пт
пт1823:00+16зсз2498100 2.4 1003156
02:00+15сз2699100 5.1 1002341
05:00+9с71396100 9.3 1004626
08:00+8с61397100 9.8 1007687
11:00+9с71189100 13.3 1008996
14:00+14с8114975 0.1 10091861
17:00+16с71244100 0.1 10092337
20:00+13с410515 0.0 1010366
19 июня, сб
сб1923:00+9сз4116096 0.0 1012239
02:00+7сз367257 0.0 1013107
05:00+8сз411685 0.0 1014281
08:00+13ссз59490 0.0 10141240
11:00+17ссз6936100 0.0 10132814
14:00+17сз574167 0.0 10122371
17:00+18сз574481 0.0 10112321
20:00+14зсз226269 0.0 101040
20 июня, вс
вс2023:00+10зсз4127584 0.0 1011254
02:00+8зсз388710 0.0 1010127
05:00+9з36846 0.0 1009143
08:00+15з4564100 0.0 1008535
11:00+13юз3481100 0.0 1007244
14:00+13юз4691100 0.2 1005551
17:00+15ссз61090100 1.0 1003925
20:00+11ссз91588100 1.0 10051066
21 июня, пн
пн2123:00+10ссз81473100 1.0 1006885
02:00+9ссз61276100 0.0 1007707
05:00+9ссз61488100 0.0 1008766
08:00+11ссз71775100 0.0 10091663
11:00+12с71581100 0.8 10101618
14:00+11с91880100 0.4 10121500
17:00+13с91763100 0.5 10131529
20:00+12с7176286 0.0 10141207